Date,TemperatureHighF,TemperatureAvgF,TemperatureLowF,DewpointHighF,DewpointAvgF,DewpointLowF,HumidityHigh,HumidityAvg,HumidityLow,PressureMaxIn,PressureMinIn,WindSpeedMaxMPH,WindSpeedAvgMPH,GustSpeedMaxMPH,PrecipitationSumIn
2013-3-1,37.0,36.2,35.8,32.2,31.3,30.3,84,82,78,30.25,30.19,11,6,0,0.00
2013-3-2,37.0,36.1,35.4,27.8,27.5,27.0,72,71,69,30.22,30.19,7,6,0,0.00
2013-3-3,45.1,37.5,31.3,33.0,29.2,25.2,79,72,61,30.19,30.01,12,6,0,0.00
2013-3-4,52.9,41.9,32.2,41.2,33.6,26.7,82,73,63,30.01,29.78,16,7,0,0.00
2013-3-5,58.8,49.1,40.3,41.4,36.4,32.7,74,62,47,29.78,29.60,16,6,0,0.00
2013-3-6,61.2,52.2,47.1,41.9,37.9,35.8,65,58,47,29.60,29.48,10,6,0,0.00
2013-3-7,54.9,49.5,48.0,48.8,44.5,43.3,85,83,80,29.42,29.36,6,6,0,0.00
2013-3-8,53.2,50.1,47.1,49.8,46.4,42.8,89,87,85,29.57,29.33,13,6,0,0.28
2013-3-9,58.8,50.5,44.4,51.2,44.5,38.3,88,80,65,29.60,29.54,10,6,0,0.00
2013-3-10,46.9,42.7,38.8,42.1,37.1,32.3,87,81,76,29.60,29.51,11,6,0,0.00
2013-3-11,39.0,36.2,34.3,33.7,32.1,30.0,88,85,77,29.57,29.33,14,6,0,0.36
2013-3-12,35.2,30.5,26.6,32.1,26.7,22.7,88,86,83,29.63,29.30,18,6,0,0.32
2013-3-13,37.2,29.8,21.4,29.4,23.7,16.2,86,78,67,29.84,29.63,7,6,0,0.16
2013-3-14,39.9,34.6,31.6,30.9,27.4,24.8,84,75,60,29.98,29.84,16,7,0,0.04
2013-3-15,43.9,35.9,27.3,31.4,26.8,21.7,80,70,58,30.01,29.90,17,7,0,0.00
2013-3-16,46.0,39.9,34.0,36.1,29.3,25.8,83,66,52,29.90,29.51,16,8,0,0.16
2013-3-17,47.1,42.1,36.5,41.4,37.1,31.2,86,82,78,29.54,29.27,18,8,0,0.02
2013-3-18,48.0,40.3,33.6,40.5,34.5,28.8,85,80,70,29.36,29.22,19,7,0,0.14
2013-3-19,48.9,42.5,37.9,40.7,36.9,33.3,85,81,70,29.51,29.36,17,8,0,0.16
2013-3-20,50.4,43.0,36.9,41.0,36.8,31.0,87,79,65,29.95,29.48,16,7,0,0.08
2013-3-21,48.9,41.6,33.3,40.1,35.1,28.1,84,78,71,30.01,29.90,17,8,0,0.00
2013-3-22,56.3,46.8,39.6,39.2,36.3,32.6,77,67,52,29.90,29.60,17,9,0,0.00
2013-3-23,49.6,45.0,41.9,39.0,37.1,35.6,78,74,66,29.72,29.66,14,6,0,0.00
2013-3-24,47.7,41.9,39.0,37.5,34.7,29.0,84,76,66,29.75,29.66,13,6,0,0.16
2013-3-25,46.0,41.0,37.2,28.8,26.9,23.3,66,57,48,29.78,29.72,15,6,0,0.00
2013-3-26,44.4,39.1,34.9,26.9,24.8,23.3,64,56,48,29.78,29.72,17,6,0,0.00
2013-3-27,44.4,38.4,33.8,27.9,24.8,23.1,66,58,51,29.75,29.69,17,6,0,0.00
2013-3-28,45.3,38.3,32.9,29.8,27.1,23.5,72,64,51,29.84,29.72,17,7,0,0.00
2013-3-29,43.9,34.3,32.0,27.0,0.5,-76.0,72,51,51,29.81,29.66,17,16,0,0.00
2013-3-30,41.5,37.1,32.0,-76.0,-76.0,-76.0,0,0,100,29.81,29.63,17,17,0,0.00
2013-3-31,41.5,39.1,32.0,-76.0,-76.0,-76.0,0,0,100,29.86,29.78,17,17,0,0.00